FW0906 Weather Reports


time (UTC)temp
C
wind
direction
speed
KPH
gust
KPH
rain 1hr
cm
rain 24hr
cm
rain mn
cm
humidity
%
barometer
mb
20260906224555 25 88 4.8 20.9 0.00 0.00 0.00 35 1018.8
20260906223051 25 67 6.4 17.7 0.00 0.00 0.00 36 1018.8
20260906221547 26 88 3.2 17.7 0.00 0.00 0.00 36 1019.0
20260906220044 26 86 8.0 25.7 0.00 0.00 0.00 35 1019.1
20260906214537 26 98 0.0 17.7 0.00 0.00 0.00 35 1019.4
20260906213034 26 86 6.4 22.5 0.00 0.00 0.00 36 1019.6
20260906211530 27 99 3.2 17.7 0.00 0.00 0.00 37 1019.7
20260906210024 27 71 8.0 16.1 0.00 0.00 0.00 37 1019.7
20260906204520 27 94 4.8 20.9 0.00 0.00 0.00 37 1019.8
20260906203016 27 105 6.4 20.9 0.00 0.00 0.00 36 1019.8
20260906201511 27 86 0.0 14.5 0.00 0.00 0.00 35 1019.8
20260906200008 27 87 3.2 16.1 0.00 0.00 0.00 35 1019.7
20260906194503 28 71 4.8 20.9 0.00 0.00 0.00 35 1019.9
20260906193100 28 60 1.6 16.1 0.00 0.00 0.00 34 1019.8
20260906191555 28 71 1.6 20.9 0.00 0.00 0.00 32 1020.0
20260906190050 27 100 8.0 20.9 0.00 0.00 0.00 32 1020.1
20260906184546 27 105 6.4 24.1 0.00 0.00 0.00 31 1020.1
20260906183041 28 79 4.8 22.5 0.00 0.00 0.00 29 1020.1
20260906181537 27 90 8.0 17.7 0.00 0.00 0.00 27 1020.2
20260906180036 27 78 4.8 17.7 0.00 0.00 0.00 25 1020.3
20260906174528 26 98 6.4 16.1 0.00 0.00 0.00 18 1020.5
20260906173024 26 95 4.8 22.5 0.00 0.00 0.00 12 1020.6
20260906171520 27 89 1.6 14.5 0.00 0.00 0.00 13 1020.8
20260906170015 27 68 8.0 20.9 0.00 0.00 0.00 16 1020.8
20260906164511 27 80 3.2 14.5 0.00 0.00 0.00 2 1020.9
20260906163007 26 86 3.2 17.7 0.00 0.00 0.00 100 1020.9
20260906161502 26 96 3.2 16.1 0.00 0.00 0.00 100 1020.9
20260906160057 26 90 6.4 16.1 0.00 0.00 0.00 100 1020.9
20260906154601 26 90 4.8 17.7 0.00 0.00 0.00 100 1020.6
20260906153054 26 107 4.8 16.1 0.00 0.00 0.00 100 1020.4
20260906151545 25 80 4.8 17.7 0.00 0.00 0.00 100 1020.5
20260906150053 25 85 4.8 14.5 0.00 0.00 0.00 100 1020.7
20260906144536 25 96 4.8 12.9 0.00 0.00 0.00 100 1020.7
20260906143031 25 116 1.6 11.3 0.00 0.00 0.00 100 1020.7
20260906141528 24 77 1.6 8.0 0.00 0.00 0.00 100 1020.7
20260906140032 23 80 1.6 11.3 0.00 0.00 0.00 100 1020.6
20260906134518 23 76 1.6 14.5 0.00 0.00 0.00 100 1020.6
20260906133022 22 98 6.4 14.5 0.00 0.00 0.00 100 1020.5
20260906131510 22 78 8.0 17.7 0.00 0.00 0.00 100 1020.4
20260906130016 21 82 4.8 14.5 0.00 0.00 0.00 100 1020.3
20260906124501 21 77 1.6 12.9 0.00 0.00 0.00 100 1020.2
20260906123101 20 53 0.0 1.6 0.00 0.00 0.00 100 1020.2
20260906121553 20 51 0.0 4.8 0.00 0.00 0.00 100 1020.1
20260906120059 20 43 0.0 0.0 0.00 0.00 0.00 100 1019.7
20260906114555 20 42 0.0 0.0 0.00 0.00 0.00 100 1019.4
20260906113039 20 42 0.0 0.0 0.00 0.00 0.00 100 1019.4
20260906111543 20 42 0.0 0.0 0.00 0.00 0.00 100 1019.0
20260906110030 20 42 0.0 4.8 0.00 0.00 0.00 100 1018.9
20260906104539 20 42 0.0 4.8 0.00 0.00 0.00 100 1018.7
20260906103040 20 42 0.0 6.4 0.00 0.00 0.00 100 1018.5
20260906101518 20 34 0.0 6.4 0.00 0.00 0.00 100 1018.4
20260906100024 20 22 0.0 4.8 0.00 0.00 0.00 100 1018.4
20260906094508 20 21 0.0 0.0 0.00 0.00 0.00 100 1018.2
20260906093010 20 21 0.0 1.6 0.00 0.00 0.00 100 1018.2
20260906091601 20 21 0.0 0.0 0.00 0.00 0.00 100 1018.2
20260906090057 20 21 0.0 0.0 0.00 0.00 0.00 100 1018.2
20260906084556 21 21 0.0 0.0 0.00 0.00 0.00 100 1018.1
20260906083047 21 21 0.0 0.0 0.00 0.00 0.00 100 1018.0
20260906081543 21 21 0.0 0.0 0.00 0.00 0.00 100 1018.1
20260906080038 21 42 0.0 0.0 0.00 0.00 0.00 100 1018.2
20260906074537 21 48 0.0 0.0 0.00 0.00 0.00 100 1018.3
20260906073031 21 48 0.0 0.0 0.00 0.00 0.00 100 1018.2
20260906071525 21 48 0.0 3.2 0.00 0.00 0.00 100 1018.3
20260906070024 21 48 0.0 0.0 0.00 0.00 0.00 100 1018.4
20260906064517 21 48 0.0 0.0 0.00 0.00 0.00 100 1018.4
20260906063012 22 48 0.0 0.0 0.00 0.00 0.00 100 1018.3
20260906061510 22 47 0.0 0.0 0.00 0.00 0.00 100 1018.4
20260906060003 22 23 0.0 11.3 0.00 0.00 0.00 100 1018.5
20260906054623 22 66 0.0 6.4 0.00 0.00 0.00 100 1018.1
20260906053054 22 58 0.0 0.0 0.00 0.00 0.00 100 1018.2
20260906051550 22 67 0.0 0.0 0.00 0.00 0.00 100 1018.2
20260906050045 22 70 1.6 16.1 0.00 0.00 0.00 100 1017.8
20260906044541 22 63 0.0 0.0 0.00 0.00 0.00 100 1018.0
20260906043037 22 40 0.0 0.0 0.00 0.00 0.00 100 1017.6
20260906041532 23 82 0.0 11.3 0.00 0.00 0.00 100 1017.4
20260906040036 23 74 3.2 14.5 0.00 0.00 0.00 100 1017.2
20260906034523 23 98 1.6 14.5 0.00 0.00 0.00 100 1017.2
20260906033019 23 87 1.6 14.5 0.00 0.00 0.00 100 1017.2
20260906031549 23 88 4.8 22.5 0.00 0.00 0.00 100 1017.1
20260906030011 23 101 8.0 25.7 0.00 0.00 0.00 100 1017.0
20260906024524 23 76 3.2 17.7 0.00 0.00 0.00 100 1017.1
20260906023001 23 84 6.4 22.5 0.00 0.00 0.00 100 1017.0
20260906021604 23 80 3.2 22.5 0.00 0.00 0.00 100 1017.1
20260906020053 23 86 1.6 16.1 0.00 0.00 0.00 100 1017.0
20260906014553 23 78 6.4 17.7 0.00 0.00 0.00 100 1017.1
20260906013048 23 92 3.2 20.9 0.00 0.00 0.00 100 1017.0
20260906011540 23 49 4.8 16.1 0.00 0.00 0.00 100 1017.0
20260906010046 23 61 4.8 17.7 0.00 0.00 0.00 100 1017.0
20260906004531 23 77 4.8 20.9 0.00 0.00 0.00 100 1016.8
20260906003027 24 98 6.4 20.9 0.00 0.00 0.00 100 1016.7
20260906001530 25 76 0.0 9.7 0.00 0.00 0.00 100 1016.5
20260906000020 25 70 4.8 20.9 0.00 0.00 0.00 100 1016.1
20260905234515 26 91 8.0 19.3 0.00 0.00 0.00 100 1015.8
20260905233009 26 86 8.0 17.7 0.00 0.00 0.00 100 1015.8
20260905231505 27 70 3.2 14.5 0.00 0.00 0.00 100 1015.7